Torna al catalogo

YAOGAN 2 DEB

AttivoMilitareSSO
NORAD 38262·DEBRIS·🇨🇳 China

Lanciato May 25, 2007 da Jiuquan Satellite Launch Center

Loading…

Prossimi Passaggi (prossime 24 ore)

TLE

AggiornatoSource: Space-Track

Epoca: Sep 14, 2026, 13:04 UTC

1 38262U 07019B   26257.54512822  .00002001  00000-0  45286-3 0  9990
2 38262  97.8363 162.1138 0150222  57.7993  64.2785 14.50420773984414

Traccia YAOGAN 2 DEB in tempo reale con AllMySat

Download on the App Store